Hourly Data Report for October 13, 2005

TORONTO CITY
ONTARIO

43°40'00.000" N
79°24'00.000" W
112.50 m
6158355
71508
XTO

Download Data

Hourly Data (October 2005)
Hourly Data Report for October 13, 2005
TIME
LST
Temp Definition
°C
Dew Point Definition
°C
Rel Hum Definition
%
Precip. Amount Definition
mm

Wind Dir Definition
10's deg

Wind Spd Definition
km/h
Visibility Definition
km
Stn Press Definition
kPa
Hmdx Definition


Wind Chill Definition


Weather Definition


00:00 12.6 12.4 99   LegendMM LegendMM   100.72     LegendNANA
01:00 12.8 12.6 99   LegendMM LegendMM   100.71     LegendNANA
02:00 13.0 12.7 98   LegendMM LegendMM   100.70     LegendNANA
03:00 12.9 12.4 97   LegendMM LegendMM   100.69     LegendNANA
04:00 12.6 12.1 97   LegendMM LegendMM   100.68     LegendNANA
05:00 12.6 12.4 99   LegendMM LegendMM   100.67     LegendNANA
06:00 12.5 12.2 98   LegendMM LegendMM   100.69     LegendNANA
07:00 12.5 12.3 99   LegendMM LegendMM   100.72     LegendNANA
08:00 12.5 12.3 99   LegendMM LegendMM   100.75     LegendNANA
09:00 12.6 12.4 99   LegendMM LegendMM   100.77     LegendNANA
10:00 12.5 12.3 99   LegendMM LegendMM   100.76     LegendNANA
11:00 12.8 12.4 97   LegendMM LegendMM   100.78     LegendNANA
12:00 13.5 12.4 93   LegendMM LegendMM   100.73     LegendNANA
13:00 13.9 12.1 89   LegendMM LegendMM   100.68     LegendNANA
14:00 14.2 12.4 89   LegendMM LegendMM   100.65     LegendNANA
15:00 14.3 12.5 89   LegendMM LegendMM   100.64     LegendNANA
16:00 13.9 12.6 92   LegendMM LegendMM   100.67     LegendNANA
17:00 13.7 12.5 92   LegendMM LegendMM   100.66     LegendNANA
18:00 13.7 12.6 93   LegendMM LegendMM   100.66     LegendNANA
19:00 13.8 12.8 94   LegendMM LegendMM   100.66     LegendNANA
20:00 13.9 12.9 94   LegendMM LegendMM   100.67     LegendNANA
21:00 14.0 13.1 94   LegendMM LegendMM   100.67     LegendNANA
22:00 14.0 13.1 94   LegendMM LegendMM   100.64     LegendNANA
23:00 14.1 13.3 95   LegendMM LegendMM   100.64     LegendNANA

Notes on Data Quality.

Legend

  • E = Estimated
  • M = Missing
  • NA = Not Available*
  • [empty] = Indicates an unobserved value
Date modified: